Flag for Poland Weather past 2 weeks in Dąbrowa Górnicza, Poland

Now
39 °F

Drizzle. Fog.


Feels Like: 32 °F
Forecast: 31 / 40 °F
Wind: 13 mph from Northeast

Location: Katowice Airport

Current Time: Oct 23, 2014 at 2:51:24 PM

Latest Report: Oct 23, 2014 at 2:30 PM


Visibility: 2 mi

Pressure: 30.01 "Hg

Humidity: 100%

Dew point: 39 °F

Location of Dąbrowa GórniczaLocation

Historic Weather in Dąbrowa Górnicza — Graph

°F

Dąbrowa Górnicza temperature yesterday

Maximum temperature yesterday: 54 °F (at 12:00 AM)
Minimum temperature yesterday: 43 °F (at 2:30 PM)
Average temperature yesterday: 46 °F

Past Weeks' High & Low Weather Summary

 TemperatureHumidityPressure
High75 °F (Oct 11, 3:00 PM)100% (Oct 10, 9:00 PM)30.33 "Hg (Oct 10, 9:00 PM)
Low39 °F (Oct 15, 7:00 AM)50% (Oct 9, 1:30 PM)29.53 "Hg (Oct 22, 3:00 AM)
Average56 °F87%29.92 "Hg
* Reported Oct 8 1:00 PM — Oct 23 1:30 PM, Dąbrowa Górnicza, Weather by CustomWeather, © 2014

Note: Actual official high and low records may vary slightly from our data, if they occured in-between our weather recording intervals... More about our weather records

Advertising

Dąbrowa Górnicza weather history for previous 24 hours

 ConditionsComfort  
Time TempWeatherWind HumidityBarometerVisibility
1:30 PM
Oct 23
41 °FDrizzle. Broken clouds.10 mph93%30.01 "Hg4 mi
1:00 PM41 °FDrizzle. Broken clouds.9 mph93%30.01 "Hg4 mi
12:30 PM41 °FDrizzle. Broken clouds.13 mph100%29.98 "Hg4 mi
12:00 PM41 °FDrizzle. Broken clouds.12 mph100%29.98 "Hg4 mi
11:30 AM41 °FDrizzle. Broken clouds.13 mph100%29.95 "HgN/A
11:00 AM43 °FDrizzle. Broken clouds.15 mph93%29.95 "HgN/A
10:30 AM43 °FDrizzle. Broken clouds.13 mph93%29.92 "HgN/A
10:00 AM43 °FLight rain. Broken clouds.15 mph93%29.92 "HgN/A
9:30 AM43 °FLight rain. Broken clouds.15 mph93%29.89 "HgN/A
9:00 AM43 °FLight rain. Broken clouds.15 mph93%29.89 "Hg5 mi
8:30 AM43 °FLight rain. Broken clouds.15 mph93%29.86 "HgN/A
8:00 AM43 °FPartly cloudy.15 mph93%29.86 "HgN/A
7:30 AM45 °FPartly cloudy.16 mph93%29.83 "HgN/A
7:00 AM45 °FPartly cloudy.16 mph93%29.80 "HgN/A
6:30 AM45 °FPartly cloudy.17 mph93%29.77 "HgN/A
6:00 AM45 °FPartly cloudy.15 mph93%29.77 "HgN/A
5:30 AM46 °FLight rain. Partly cloudy.20 mph93%29.74 "HgN/A
5:00 AM46 °FLight rain. Partly cloudy.21 mph93%29.74 "Hg4 mi
4:30 AM46 °FLight rain. Partly cloudy.17 mph100%29.71 "Hg4 mi
4:00 AM48 °FLight rain. Fog.15 mph94%29.71 "Hg2 mi
3:30 AM48 °FRain. Fog.15 mph100%29.68 "Hg2 mi
3:00 AM46 °FLight rain. Fog.9 mph100%29.68 "Hg3 mi
2:30 AM46 °FLight rain. Fog.7 mph100%29.65 "Hg3 mi
2:00 AM45 °FLight rain. Partly cloudy.5 mph100%29.65 "Hg4 mi
1:30 AM45 °FRain. Partly cloudy.2 mph93%29.65 "Hg4 mi
1:00 AM43 °FLight rain. Partly cloudy.5 mph100%29.65 "Hg4 mi
12:30 AM43 °FRain. Fog.6 mph100%29.65 "Hg3 mi
12:00 AM43 °FLight rain. Partly cloudy.8 mph100%29.65 "Hg4 mi
11:30 PM
Oct 22
43 °FRain. Fog.7 mph100%29.62 "Hg3 mi
11:00 PM43 °FLight rain. Passing clouds.8 mph100%29.62 "Hg4 mi
10:30 PM43 °FLight rain. Partly cloudy.9 mph100%29.62 "Hg5 mi
10:00 PM43 °FLight rain. Partly cloudy.9 mph100%29.62 "Hg4 mi
9:30 PM43 °FLight rain. Partly cloudy.8 mph100%29.62 "Hg5 mi
9:00 PM43 °FLight rain. Partly cloudy.8 mph100%29.62 "Hg4 mi
8:30 PM43 °FLight rain. Partly cloudy.8 mph93%29.62 "Hg5 mi
8:00 PM43 °FLight rain. Partly cloudy.8 mph93%29.62 "Hg5 mi
7:30 PM43 °FLight rain. Partly cloudy.8 mph93%29.62 "Hg4 mi
7:00 PM43 °FLight rain. Passing clouds.8 mph100%29.65 "Hg4 mi
6:30 PM43 °FLight rain. Partly sunny.8 mph93%29.65 "Hg4 mi
6:00 PM43 °FLight rain. Partly sunny.8 mph93%29.65 "Hg4 mi
5:30 PM43 °FLight rain. Partly sunny.8 mph93%29.62 "Hg5 mi
5:00 PM43 °FLight rain. Broken clouds.9 mph93%29.62 "HgN/A
4:30 PM43 °FLight rain. Broken clouds.12 mph93%29.62 "HgN/A
4:00 PM43 °FLight rain. Broken clouds.12 mph93%29.62 "HgN/A
3:30 PM43 °FLight rain. Partly sunny.10 mph93%29.62 "HgN/A
3:00 PM43 °FLight rain. Partly sunny.13 mph93%29.62 "HgN/A
2:30 PM43 °FLight rain. Partly sunny.13 mph93%29.62 "HgN/A
2:00 PM45 °FLight rain. Partly sunny.13 mph93%29.62 "HgN/A
Weather by CustomWeather, © 2014

See weather overviewHow to use our weather pages